GW6919 Weather Reports


time (UTC)temp
C
wind
direction
speed
KPH
gust
KPH
rain 1hr
cm
rain 24hr
cm
rain mn
cm
humidity
%
barometer
mb
20260507110103 11 263 0.0 0.0 0.00 0.00 0.00 76 1020.4
20260507105600 11 196 0.0 0.0 0.00 0.00 0.00 76 1020.4
20260507105055 11 197 0.0 1.6 0.00 0.00 0.00 76 1020.4
20260507104554 11 90 1.6 3.2 0.00 0.00 0.00 76 1020.5
20260507104050 11 250 0.0 0.0 0.00 0.00 0.00 76 1020.4
20260507103546 11 302 1.6 4.8 0.00 0.00 0.00 75 1020.5
20260507103043 11 199 0.0 3.2 0.00 0.00 0.00 76 1020.7
20260507102539 11 135 0.0 3.2 0.00 0.00 0.00 76 1020.7
20260507102035 11 166 0.0 1.6 0.00 0.00 0.00 76 1020.7
20260507101531 11 242 0.0 1.6 0.00 0.00 0.00 76 1020.7
20260507101027 11 236 0.0 1.6 0.00 0.00 0.00 76 1020.7
20260507100525 11 172 0.0 1.6 0.00 0.00 0.00 76 1020.6
20260507100023 11 71 0.0 1.6 0.00 0.00 0.00 76 1020.6
20260507095520 11 247 3.2 3.2 0.00 0.00 0.00 76 1020.7
20260507095017 11 255 0.0 3.2 0.00 0.00 0.00 76 1020.8
20260507094513 11 153 1.6 1.6 0.00 0.00 0.00 76 1020.9
20260507094010 11 104 1.6 1.6 0.00 0.00 0.00 77 1020.7
20260507093508 11 227 0.0 1.6 0.00 0.00 0.00 77 1020.8
20260507093006 11 178 0.0 3.2 0.00 0.00 0.00 77 1020.9
20260507092502 12 46 0.0 1.6 0.00 0.00 0.00 77 1020.8
20260507091959 12 198 0.0 1.6 0.00 0.00 0.00 77 1021.0
20260507091455 12 251 4.8 4.8 0.00 0.00 0.00 78 1021.1
20260507090952 12 213 0.0 1.6 0.00 0.00 0.00 79 1021.1
20260507090447 12 226 0.0 0.0 0.00 0.00 0.00 79 1021.0
20260507085944 12 209 0.0 0.0 0.00 0.00 0.00 79 1021.1
20260507085442 12 246 0.0 3.2 0.00 0.00 0.00 78 1020.9
20260507084938 12 192 3.2 8.0 0.00 0.00 0.00 78 1021.1
20260507084435 12 214 0.0 1.6 0.00 0.00 0.00 78 1021.0
20260507083932 12 215 0.0 1.6 0.00 0.00 0.00 78 1021.1
20260507083429 12 221 0.0 1.6 0.00 0.00 0.00 78 1021.0
20260507082925 12 189 0.0 0.0 0.00 0.00 0.00 78 1021.0
20260507082421 12 236 0.0 1.6 0.00 0.00 0.00 78 1021.1
20260507081918 12 214 1.6 3.2 0.00 0.00 0.00 78 1021.1
20260507081414 12 191 0.0 1.6 0.00 0.00 0.00 78 1021.2
20260507080911 12 209 0.0 1.6 0.00 0.00 0.00 79 1021.1
20260507080407 12 223 0.0 1.6 0.00 0.00 0.00 79 1021.0
20260507075902 12 224 0.0 0.0 0.00 0.00 0.00 79 1021.0
20260507075359 12 241 0.0 0.0 0.00 0.00 0.00 79 1021.1
20260507074855 12 233 0.0 0.0 0.00 0.00 0.00 79 1021.3
20260507074352 12 244 0.0 0.0 0.00 0.00 0.00 79 1021.2
20260507073850 12 192 0.0 0.0 0.00 0.00 0.00 79 1021.0
20260507073346 12 209 0.0 0.0 0.00 0.00 0.00 79 1021.1
20260507072844 12 213 0.0 0.0 0.00 0.00 0.00 79 1020.9
20260507072341 12 228 0.0 1.6 0.00 0.00 0.00 79 1021.1
20260507071838 12 127 0.0 1.6 0.00 0.00 0.00 79 1020.9
20260507071335 12 260 0.0 0.0 0.00 0.00 0.00 79 1020.9
20260507070831 12 191 0.0 1.6 0.00 0.00 0.00 79 1020.6
20260507070329 12 117 1.6 3.2 0.00 0.00 0.00 78 1020.8
20260507065826 12 185 0.0 0.0 0.00 0.00 0.00 78 1021.0
20260507065322 12 225 0.0 0.0 0.00 0.00 0.00 78 1020.9
20260507064820 12 239 0.0 0.0 0.00 0.00 0.00 78 1021.0
20260507064318 12 241 0.0 1.6 0.00 0.00 0.00 78 1020.8
20260507063816 12 234 1.6 1.6 0.00 0.00 0.00 78 1021.0
20260507063312 12 107 1.6 1.6 0.00 0.00 0.00 78 1020.9
20260507062809 12 240 0.0 1.6 0.00 0.00 0.00 78 1021.0
20260507062306 12 191 0.0 0.0 0.00 0.00 0.00 78 1020.9
20260507061804 12 231 0.0 1.6 0.00 0.00 0.00 78 1021.1
20260507061302 12 267 0.0 1.6 0.00 0.00 0.00 78 1021.0
20260507060800 12 243 0.0 1.6 0.00 0.00 0.00 78 1020.9
20260507060256 12 155 0.0 1.6 0.00 0.00 0.00 78 1021.0
20260507055752 12 247 0.0 3.2 0.00 0.00 0.00 78 1020.9
20260507055248 12 91 0.0 3.2 0.00 0.00 0.00 78 1020.9
20260507054744 12 184 0.0 3.2 0.00 0.00 0.00 78 1020.8
20260507054241 12 181 0.0 1.6 0.00 0.00 0.00 78 1020.8
20260507053739 12 161 0.0 3.2 0.00 0.00 0.00 78 1021.0
20260507053236 12 180 0.0 1.6 0.00 0.00 0.00 78 1021.0
20260507052735 13 124 1.6 3.2 0.00 0.00 0.00 77 1020.9
20260507052231 13 126 1.6 3.2 0.00 0.00 0.00 77 1020.7
20260507051729 13 150 0.0 1.6 0.00 0.00 0.00 77 1020.9
20260507051226 13 298 0.0 1.6 0.00 0.00 0.00 77 1020.9
20260507050722 13 267 1.6 3.2 0.00 0.00 0.00 76 1020.9
20260507050220 13 128 1.6 3.2 0.00 0.00 0.00 76 1021.1
20260507045716 13 37 0.0 4.8 0.00 0.00 0.00 76 1020.9
20260507045212 13 175 0.0 3.2 0.00 0.00 0.00 76 1020.8
20260507044710 13 201 0.0 1.6 0.00 0.00 0.00 76 1021.0
20260507044206 13 117 4.8 4.8 0.00 0.00 0.00 76 1020.8
20260507043702 13 84 3.2 4.8 0.00 0.00 0.00 76 1020.9
20260507043159 13 67 6.4 11.3 0.00 0.00 0.00 76 1020.9
20260507042656 13 42 4.8 8.0 0.00 0.00 0.00 76 1020.8
20260507042150 13 111 4.8 9.7 0.00 0.00 0.00 76 1020.7
20260507041648 13 105 0.0 4.8 0.00 0.00 0.00 76 1020.8
20260507041144 14 25 1.6 3.2 0.00 0.00 0.00 75 1020.6
20260507040641 14 103 1.6 8.0 0.00 0.00 0.00 75 1020.8
20260507040138 14 154 1.6 8.0 0.00 0.00 0.00 75 1020.5
20260507035634 14 104 3.2 8.0 0.00 0.00 0.00 75 1020.6
20260507035130 14 154 4.8 8.0 0.00 0.00 0.00 75 1020.6
20260507034627 15 72 1.6 3.2 0.00 0.00 0.00 75 1020.4
20260507034124 15 208 0.0 4.8 0.00 0.00 0.00 75 1020.4
20260507033623 15 100 1.6 3.2 0.00 0.00 0.00 75 1020.3
20260507033119 15 115 1.6 3.2 0.00 0.00 0.00 75 1020.4
20260507032617 15 113 3.2 3.2 0.00 0.00 0.00 75 1020.2
20260507032113 15 149 0.0 3.2 0.00 0.00 0.00 75 1020.1
20260507031609 15 82 1.6 3.2 0.00 0.00 0.00 76 1020.3
20260507031106 15 14 1.6 3.2 0.00 0.00 0.00 75 1020.0
20260507030603 15 89 1.6 4.8 0.00 0.00 0.00 75 1019.9
20260507030101 15 150 1.6 3.2 0.00 0.00 0.00 74 1019.8
20260507025558 15 6 1.6 3.2 0.00 0.00 0.00 74 1019.9
20260507025055 15 151 0.0 3.2 0.00 0.00 0.00 74 1019.8
20260507024553 15 143 1.6 3.2 0.00 0.00 0.00 74 1019.7
20260507024049 15 183 3.2 3.2 0.00 0.00 0.00 74 1019.8
20260507023545 15 166 0.0 3.2 0.00 0.00 0.00 74 1019.7
20260507023043 16 157 1.6 1.6 0.00 0.00 0.00 74 1019.6
20260507022539 16 122 3.2 3.2 0.00 0.00 0.00 73 1019.6
20260507022035 16 125 3.2 4.8 0.00 0.00 0.00 73 1019.6
20260507021531 16 141 1.6 3.2 0.00 0.00 0.00 72 1019.8
20260507021028 16 130 1.6 8.0 0.00 0.00 0.00 72 1019.8
20260507020525 17 75 1.6 3.2 0.00 0.00 0.00 71 1019.7
20260507020021 17 213 0.0 1.6 0.00 0.00 0.00 71 1019.6
20260507015520 17 239 1.6 1.6 0.00 0.00 0.00 71 1019.6
20260507015017 17 169 1.6 4.8 0.00 0.00 0.00 71 1019.8
20260507014513 17 209 0.0 1.6 0.00 0.00 0.00 71 1019.9
20260507014009 17 111 1.6 3.2 0.00 0.00 0.00 71 1019.8
20260507013506 17 356 1.6 1.6 0.00 0.00 0.00 70 1019.8
20260507013004 17 140 1.6 4.8 0.00 0.00 0.00 70 1019.9
20260507012500 17 134 1.6 4.8 0.00 0.00 0.00 71 1019.8
20260507011957 17 107 1.6 3.2 0.00 0.00 0.00 70 1019.8
20260507011454 17 105 4.8 4.8 0.00 0.00 0.00 70 1019.8
20260507010950 18 206 0.0 4.8 0.00 0.00 0.00 69 1019.8
20260507010444 18 103 0.0 3.2 0.00 0.00 0.00 69 1019.7
20260507005941 18 64 1.6 1.6 0.00 0.00 0.00 69 1019.7
20260507005439 18 23 0.0 4.8 0.00 0.00 0.00 69 1019.7
20260507004935 18 43 3.2 4.8 0.00 0.00 0.00 68 1019.6
20260507004432 18 8 0.0 3.2 0.00 0.00 0.00 68 1019.8
20260507003929 19 35 0.0 3.2 0.00 0.00 0.00 68 1019.7
20260507003424 19 96 1.6 4.8 0.00 0.00 0.00 68 1019.5
20260507002920 19 263 0.0 1.6 0.00 0.00 0.00 69 1019.7
20260507002416 18 177 1.6 3.2 0.00 0.00 0.00 70 1019.4
20260507001914 18 230 0.0 3.2 0.00 0.00 0.00 71 1019.5
20260507001410 18 39 0.0 3.2 0.00 0.00 0.00 72 1019.6
20260507000908 18 339 1.6 1.6 0.00 0.00 0.00 72 1019.6
20260507000405 18 97 0.0 1.6 0.00 0.00 0.00 72 1019.7
20260506235859 18 167 1.6 3.2 0.00 0.00 0.00 72 1019.7
20260506235356 18 324 0.0 1.6 0.00 0.00 0.00 72 1019.6
20260506234852 18 263 0.0 1.6 0.00 0.00 0.00 72 1019.6
20260506234350 18 74 1.6 3.2 0.00 0.00 0.00 72 1019.6
20260506233847 18 64 3.2 3.2 0.00 0.00 0.00 71 1019.6
20260506233343 18 147 0.0 1.6 0.00 0.00 0.00 72 1019.7
20260506232840 18 137 0.0 3.2 0.00 0.00 0.00 71 1019.7
20260506232336 18 155 1.6 3.2 0.00 0.00 0.00 70 1019.6
20260506231832 18 71 1.6 1.6 0.00 0.00 0.00 70 1019.7
20260506231330 18 229 0.0 1.6 0.00 0.00 0.00 70 1019.7
20260506230827 18 147 1.6 3.2 0.00 0.00 0.00 69 1019.8
20260506230324 19 89 1.6 3.2 0.00 0.00 0.00 68 1020.0
20260506225820 20 92 1.6 3.2 0.00 0.00 0.00 68 1019.8
20260506225318 20 149 1.6 3.2 0.00 0.00 0.00 68 1019.9
20260506224814 19 317 0.0 1.6 0.00 0.00 0.00 68 1019.9
20260506224312 19 171 0.0 1.6 0.00 0.00 0.00 69 1019.9
20260506223808 20 198 0.0 1.6 0.00 0.00 0.00 67 1020.0
20260506223303 20 238 0.0 1.6 0.00 0.00 0.00 66 1019.9
20260506222800 20 135 1.6 3.2 0.00 0.00 0.00 64 1020.1
20260506222256 20 196 0.0 1.6 0.00 0.00 0.00 64 1019.9
20260506221754 20 124 0.0 1.6 0.00 0.00 0.00 65 1020.0
20260506221252 19 237 1.6 3.2 0.00 0.00 0.00 65 1020.1
20260506220750 20 257 1.6 1.6 0.00 0.00 0.00 65 1020.2
20260506220249 20 219 0.0 0.0 0.00 0.00 0.00 65 1020.2
20260506215747 20 124 1.6 3.2 0.00 0.00 0.00 65 1020.1
20260506215242 20 257 1.6 8.0 0.00 0.00 0.00 64 1020.1
20260506214739 20 228 3.2 3.2 0.00 0.00 0.00 63 1020.0
20260506214236 20 220 4.8 4.8 0.00 0.00 0.00 62 1020.1
20260506213734 20 220 1.6 4.8 0.00 0.00 0.00 65 1020.1
20260506213231 20 251 1.6 3.2 0.00 0.00 0.00 66 1020.0
20260506212728 20 285 4.8 4.8 0.00 0.00 0.00 66 1020.1
20260506212224 18 240 0.0 3.2 0.00 0.00 0.00 69 1020.3
20260506211719 18 233 3.2 8.0 0.00 0.00 0.00 70 1020.4
20260506211216 18 251 0.0 4.8 0.00 0.00 0.00 70 1020.5
20260506210713 18 53 0.0 1.6 0.00 0.00 0.00 72 1020.5
20260506210210 17 251 1.6 3.2 0.00 0.00 0.00 74 1020.5
20260506205708 17 250 0.0 1.6 0.00 0.00 0.00 73 1020.6
20260506205208 18 236 3.2 3.2 0.00 0.00 0.00 72 1020.6
20260506204705 17 54 0.0 1.6 0.00 0.00 0.00 72 1020.6
20260506204202 17 97 0.0 1.6 0.00 0.00 0.00 73 1020.5
20260506203700 17 260 1.6 3.2 0.00 0.00 0.00 74 1020.5
20260506203157 17 278 0.0 3.2 0.00 0.00 0.00 74 1020.6
20260506202655 17 228 1.6 1.6 0.00 0.00 0.00 74 1020.6
20260506202151 17 262 1.6 1.6 0.00 0.00 0.00 72 1020.4
20260506201648 17 267 0.0 1.6 0.00 0.00 0.00 75 1020.4
20260506201144 17 261 0.0 4.8 0.00 0.00 0.00 75 1020.4
20260506200641 17 265 3.2 4.8 0.00 0.00 0.00 74 1020.5
20260506200138 17 228 0.0 0.0 0.00 0.00 0.00 74 1020.6
20260506195634 16 192 0.0 3.2 0.00 0.00 0.00 75 1020.5
20260506195130 16 255 0.0 3.2 0.00 0.00 0.00 77 1020.6
20260506194628 16 230 3.2 3.2 0.00 0.00 0.00 76 1020.8
20260506194124 16 228 0.0 0.0 0.00 0.00 0.00 77 1020.8
20260506193622 16 271 0.0 0.0 0.00 0.00 0.00 77 1020.9
20260506193119 16 274 1.6 1.6 0.00 0.00 0.00 76 1020.9
20260506192616 16 261 0.0 1.6 0.00 0.00 0.00 77 1021.0
20260506192112 16 64 1.6 1.6 0.00 0.00 0.00 76 1020.8
20260506191609 16 243 0.0 3.2 0.00 0.00 0.00 77 1020.8
20260506191104 16 253 0.0 0.0 0.00 0.00 0.00 76 1020.8
20260506190602 16 233 0.0 0.0 0.00 0.00 0.00 75 1020.9
20260506190059 16 254 0.0 1.6 0.00 0.00 0.00 77 1020.8
20260506185556 16 224 0.0 1.6 0.00 0.00 0.00 77 1020.8
20260506185053 16 255 0.0 4.8 0.00 0.00 0.00 78 1020.8
20260506184550 15 271 0.0 0.0 0.00 0.00 0.00 78 1020.9
20260506184047 15 229 3.2 3.2 0.00 0.00 0.00 79 1020.8
20260506183543 15 248 1.6 4.8 0.00 0.00 0.00 79 1020.9
20260506183040 16 267 4.8 4.8 0.00 0.00 0.00 77 1020.6
20260506182537 16 201 0.0 0.0 0.00 0.00 0.00 77 1020.7
20260506182034 16 155 0.0 0.0 0.00 0.00 0.00 78 1020.7
20260506181532 15 238 0.0 1.6 0.00 0.00 0.00 78 1020.7
20260506181029 15 241 0.0 3.2 0.00 0.00 0.00 79 1020.6
20260506180525 15 266 0.0 1.6 0.00 0.00 0.00 79 1020.6
20260506180022 15 261 0.0 3.2 0.00 0.00 0.00 79 1020.5
20260506175519 15 252 0.0 1.6 0.00 0.00 0.00 79 1020.8
20260506175015 15 256 0.0 0.0 0.00 0.00 0.00 77 1020.5
20260506174514 15 230 0.0 1.6 0.00 0.00 0.00 77 1020.6
20260506174009 15 277 0.0 0.0 0.00 0.00 0.00 77 1020.5
20260506173507 15 258 0.0 1.6 0.00 0.00 0.00 78 1020.5
20260506173004 15 254 1.6 1.6 0.00 0.00 0.00 77 1020.2
20260506172502 15 172 0.0 1.6 0.00 0.00 0.00 77 1020.3
20260506171957 15 181 1.6 1.6 0.00 0.00 0.00 78 1020.2
20260506171455 15 253 0.0 1.6 0.00 0.00 0.00 79 1020.3
20260506170953 15 189 0.0 1.6 0.00 0.00 0.00 80 1020.4
20260506170449 15 253 0.0 0.0 0.00 0.00 0.00 79 1020.3
20260506165947 15 252 0.0 1.6 0.00 0.00 0.00 80 1020.2
20260506165446 15 237 0.0 3.2 0.00 0.00 0.00 80 1020.6
20260506164942 15 254 0.0 1.6 0.00 0.00 0.00 79 1020.3
20260506164439 15 241 0.0 1.6 0.00 0.00 0.00 80 1020.3
20260506163937 15 219 0.0 0.0 0.00 0.00 0.00 79 1020.3
20260506163432 15 210 0.0 1.6 0.00 0.00 0.00 79 1020.3
20260506162927 15 174 1.6 3.2 0.00 0.00 0.00 80 1020.5
20260506162425 15 136 0.0 1.6 0.00 0.00 0.00 80 1020.3
20260506161922 15 142 1.6 3.2 0.00 0.00 0.00 79 1020.2
20260506161420 15 209 0.0 1.6 0.00 0.00 0.00 79 1020.2
20260506160916 14 132 0.0 1.6 0.00 0.00 0.00 81 1020.3
20260506160414 14 112 1.6 3.2 0.00 0.00 0.00 81 1020.1
20260506155912 14 259 0.0 1.6 0.00 0.00 0.00 81 1020.0
20260506155409 14 259 1.6 1.6 0.00 0.00 0.00 81 1019.8
20260506153530 13 213 0.0 0.0 0.00 0.00 0.00 83 1019.8
20260506153028 13 176 1.6 1.6 0.00 0.00 0.00 83 1020.0
20260506152525 13 211 0.0 3.2 0.00 0.00 0.00 84 1020.3
20260506152023 13 146 0.0 1.6 0.00 0.00 0.00 84 1020.3
20260506151520 13 212 0.0 3.2 0.00 0.00 0.00 85 1020.4
20260506151017 13 28 1.6 3.2 0.00 0.00 0.00 85 1020.3
20260506150513 13 150 1.6 3.2 0.00 0.00 0.00 85 1020.5
20260506150011 13 177 1.6 8.0 0.00 0.00 0.00 85 1020.3
20260506145507 13 110 1.6 3.2 0.00 0.00 0.00 85 1020.2
20260506145005 13 201 0.0 3.2 0.00 0.00 0.00 86 1020.1
20260506144501 13 247 0.0 1.6 0.00 0.00 0.00 86 1020.1
20260506143959 13 213 0.0 1.6 0.00 0.00 0.00 86 1020.3
20260506143456 13 224 0.0 1.6 0.00 0.00 0.00 86 1020.1
20260506142955 13 24 0.0 0.0 0.00 0.00 0.00 86 1019.9
20260506142452 13 20 0.0 1.6 0.00 0.00 0.00 86 1019.9
20260506141949 13 185 0.0 0.0 0.00 0.00 0.00 86 1019.7
20260506141447 13 192 0.0 0.0 0.00 0.00 0.00 86 1019.6
20260506140946 13 210 0.0 0.0 0.00 0.00 0.00 86 1019.6
20260506140442 13 211 0.0 1.6 0.00 0.00 0.00 86 1019.5
20260506135939 13 213 0.0 0.0 0.00 0.00 0.00 87 1019.6
20260506135436 13 245 0.0 0.0 0.00 0.00 0.00 87 1019.4
20260506134932 13 188 0.0 1.6 0.00 0.00 0.00 87 1019.6
20260506134429 13 259 0.0 0.0 0.00 0.00 0.00 87 1019.4
20260506133926 13 178 1.6 3.2 0.00 0.00 0.00 87 1019.4
20260506133423 13 228 0.0 0.0 0.00 0.00 0.00 86 1019.4
20260506132919 13 249 0.0 0.0 0.00 0.00 0.00 86 1019.4
20260506132416 13 248 0.0 0.0 0.00 0.00 0.00 86 1019.3
20260506131914 13 249 0.0 0.0 0.00 0.00 0.00 86 1019.2
20260506131410 13 249 0.0 0.0 0.00 0.00 0.00 86 1019.1
20260506130907 13 242 0.0 0.0 0.00 0.00 0.00 86 1019.0
20260506130403 13 241 0.0 0.0 0.00 0.00 0.00 87 1019.0
20260506125902 13 240 0.0 0.0 0.00 0.00 0.00 86 1018.9
20260506125400 13 240 0.0 0.0 0.00 0.00 0.00 86 1018.9
20260506124858 13 240 0.0 0.0 0.00 0.00 0.00 86 1018.8
20260506124354 13 211 0.0 0.0 0.00 0.00 0.00 86 1018.9
20260506123852 13 212 0.0 0.0 0.00 0.00 0.00 86 1019.0
20260506123351 13 305 0.0 1.6 0.00 0.00 0.00 86 1018.7
20260506122847 13 210 0.0 0.0 0.00 0.00 0.00 86 1018.9
20260506122344 13 214 0.0 0.0 0.00 0.00 0.00 86 1018.7
20260506121843 13 205 0.0 0.0 0.00 0.00 0.00 86 1018.9
20260506121339 13 211 0.0 0.0 0.00 0.00 0.00 86 1018.9
20260506120836 13 182 0.0 1.6 0.00 0.00 0.00 86 1019.0
20260506120334 13 153 0.0 1.6 0.00 0.00 0.00 85 1018.8
20260506115831 13 191 0.0 1.6 0.00 0.00 0.00 86 1018.7
20260506115329 13 201 0.0 1.6 0.00 0.00 0.00 86 1018.7
20260506114827 13 181 0.0 0.0 0.00 0.00 0.00 85 1018.7
20260506114325 13 167 0.0 0.0 0.00 0.00 0.00 85 1018.4
20260506113823 13 174 0.0 0.0 0.00 0.00 0.00 85 1018.4
20260506113320 13 171 0.0 0.0 0.00 0.00 0.00 85 1018.5
20260506112816 13 26 0.0 3.2 0.00 0.00 0.00 85 1018.5
20260506112314 13 53 0.0 1.6 0.00 0.00 0.00 85 1018.4
20260506111811 13 174 0.0 1.6 0.00 0.00 0.00 85 1018.2
20260506111309 13 261 0.0 1.6 0.00 0.00 0.00 85 1018.3
20260506110807 13 275 0.0 0.0 0.00 0.00 0.00 85 1018.2